#timestamp,LO_Frequency,Hit,StdDev 
1564772415.0,286047000.2,N
1564772416.0,286047000.2,N
1564772435.8,286047000.7,N
1564772455.6,286047001.1,N
1564772475.5,286047000.4,N
1564772495.3,286047000.2,N
1564772515.1,286047000.9,N
1564772535.9,286047002.4,N
1564772555.7,286047002.2,N
1564772575.6,286047002.6,N
1564772595.4,286047002.3,N
1564772615.2,286047002.3,N
1564772635.1,286047002.4,N
1564772636.0,286047002.4,N
1564772655.8,286047002.3,N
1564772675.6,286047002.6,N
1564772695.5,286047002.8,N
1564772715.3,286047002.6,N
1564772735.2,286047002.1,N
1564772755.9,286047002.3,N
1564772775.7,286047002.7,N
1564772795.6,286046999.8,N
1564772815.4,286047001.0,N
1564772835.2,286047000.2,N
1564772855.1,286047000.8,N
1564772856.0,286047000.8,N
1564772875.8,286047000.1,N
1564772895.7,286047001.9,N
1564772915.5,286047000.1,N
1564772935.3,286047000.9,N
1564772955.2,286047001.2,N
1564772975.0,286047000.4,N
1564772975.9,286047000.4,N
1564772995.8,286047000.5,N
1564773015.6,286046998.3,N
1564773035.4,286046998.9,N
1564773055.3,286047001.2,N
1564773075.1,286046998.5,N
1564773095.8,286046998.9,N
1564773115.7,286046998.9,N
1564773135.5,286046996.5,N
1564773185.4,286046998.4,E
1564773195.3,286046998.2,N
1564773215.2,286046998.1,P
1564773235.9,286047000.0,N
1564773255.7,286047000.9,N
1564773275.6,286047000.9,N
1564773295.4,286046998.2,N
1564773315.2,286046998.3,N
1564773335.1,286046998.3,N
1564773336.0,286046998.3,N
1564773355.8,286046998.2,N
1564773375.7,286046999.3,N
1564773395.5,286046997.1,N
1564773415.3,286046999.6,N
1564773435.2,286046999.3,N
1564773455.0,286046998.3,N
1564773455.9,286046998.3,N
1564773475.7,286046998.9,N
1564773495.6,286046998.1,N
1564773515.4,286046998.8,N
1564773535.3,286046998.6,N
1564773555.1,286046998.6,N
1564773575.8,286046998.9,N
1564773595.7,286047000.5,N
1564773615.5,286046998.5,N
1564773635.4,286046998.4,N
1564773655.2,286046999.4,N
1564773675.0,286046996.5,Y
1564773675.9,286046996.5,P
1564773695.8,286046999.9,N
1564773715.6,286047000.6,N
1564773735.5,286047000.4,N
1564773755.3,286047000.7,N
1564773775.1,286046996.9,N
1564773795.9,286046999.6,N
1564773815.7,286046999.3,N
1564773835.5,286046999.3,N
1564773855.4,286046999.2,N
1564773875.2,286046996.6,N
1564773895.1,286046999.3,N
1564773896.0,286046999.3,N
1564773915.8,286046998.4,N
1564773935.6,286046998.5,N
1564773955.5,286047000.7,N
1564773975.3,286047000.7,N
1564773995.2,286046999.8,N
1564774015.9,286047000.4,N
1564774035.7,286047000.8,N
1564774055.6,286047000.6,N
1564774075.4,286047001.0,N
1564774095.3,286046999.9,N
1564774115.1,286046999.7,N
1564774116.0,286046999.7,N
1564774135.8,286047001.0,N
1564774155.7,286046998.4,N
1564774175.5,286047000.4,N
1564774195.3,286047002.2,N
1564774215.2,286047001.6,N
1564774235.0,286047002.6,N
1564774235.9,286047002.6,N
1564774255.8,286047000.5,N
1564774275.6,286047001.2,N
1564774295.4,286047000.6,N
1564774315.3,286047002.5,N
1564774335.1,286047002.8,N
1564774355.9,286046999.9,N
1564774375.7,286046999.7,N
1564774395.5,286047002.3,N
1564774415.4,286047002.2,N
1564774435.2,286047002.4,N
1564774455.1,286047001.4,N
1564774456.0,286047001.4,N
1564774475.8,286047001.9,N
1564774495.6,286047001.4,N
1564774515.5,286047001.6,N
1564774535.3,286047002.3,N
1564774555.2,286046999.7,N
1564774575.9,286047000.3,N
1564774595.7,286047000.0,N
1564774615.6,286047002.5,N
1564774635.4,286047002.1,N
1564774655.3,286047002.3,N
1564774675.1,286047002.8,N
1564774676.0,286047002.8,N
1564774695.8,286047001.7,N
1564774715.7,286047004.3,Y
1564774735.5,286047002.8,P
1564774755.4,286047000.2,N
1564774775.2,286047000.1,N
1564774795.0,286046999.7,N
1564774795.9,286046999.7,N
1564774815.8,286047000.0,N
1564774835.6,286046999.7,N
1564774855.5,286047000.0,N
1564774875.3,286047002.8,N
1564774895.1,286047002.5,N
1564774915.9,286047002.2,N
1564774935.7,286047000.3,N
1564774955.5,286047000.1,N
1564774975.4,286047000.2,N
1564774995.2,286047000.1,N
1564775015.1,286047002.3,N
1564775016.0,286047002.3,N
1564775035.8,286047002.8,N
1564775055.6,286046999.8,N
1564775075.5,286047000.3,N
1564775095.3,286047000.2,N
1564775115.1,286047000.5,N
1564775135.9,286047000.3,N
1564775155.7,286047000.6,N
1564775175.6,286046999.8,N
1564775195.4,286047002.3,N
1564775215.2,286047002.4,N
1564775235.1,286047002.8,N
1564775236.0,286047002.8,N
1564775255.8,286046999.8,N
1564775275.7,286046999.8,N
1564775295.5,286047000.1,N
1564775315.3,286047000.4,N
1564775335.2,286047000.6,N
1564775355.0,286047000.1,N
1564775355.9,286047000.1,N
1564775375.8,286047000.1,N
1564775395.6,286047000.0,N
1564775415.4,286047000.1,N
1564775435.3,286046999.8,N
1564775455.1,286047000.1,N
1564775475.8,286047000.4,N
1564775495.7,286046999.7,N
1564775515.5,286047000.5,N
1564775535.4,286047000.4,N
1564775555.2,286046999.8,N
1564775575.0,286047000.0,N
1564775575.9,286047000.0,N
1564775595.8,286047002.0,N
1564775615.6,286047001.6,N
1564775635.5,286047001.9,N
1564775655.3,286047002.5,N
1564775675.1,286047001.6,N
1564775695.9,286047004.0,Y
1564775715.7,286047001.8,P
1564775735.5,286047001.8,P
1564775755.4,286047001.6,P
1564775775.2,286047001.3,N
1564775795.1,286047001.6,Y
1564775796.0,286047001.6,P
1564775815.8,286047002.8,P
1564775835.6,286047002.2,P
1564775855.5,286047002.3,Y
1564775875.3,286046999.2,P
1564775895.2,286046998.8,N
1564775915.9,286046999.6,N
1564775935.7,286046998.4,N
1564775955.6,286046998.8,N
1564775975.4,286046999.5,N
1564775995.2,286046999.0,N
